Location: Leeds
(37.2390°N, 113.3580°W)
Time: 11:27:06
(UTC-06:00)

ISS - All Passes

Search period start: 30 October 2014 00:00
Search period end: 08 November 2014 23:00
Orbit: 412 x 417 km, 51.6° (Epoch: 30 October)

Date Brightness Start Highest point End Pass type
(mag) Time Alt. Az. Time Alt. Az. Time Alt. Az.
30 Oct - 10:59:27 10° SW 11:02:43 64° SE 11:06:01 10° NE daylight
30 Oct - 12:37:23 10° WNW 12:39:42 17° NNW 12:42:01 10° NNE daylight
30 Oct - 17:30:02 10° NW 17:33:08 34° NE 17:36:13 10° ESE daylight
30 Oct - 19:07:02 10° WNW 19:09:41 22° SW 19:12:19 10° S visible
31 Oct - 10:10:41 10° SSW 10:13:40 32° SE 10:16:41 10° ENE daylight
31 Oct - 11:47:33 10° W 11:50:23 25° NNW 11:53:13 10° NNE daylight
31 Oct - 16:41:09 10° NNW 16:43:51 22° NNE 16:46:32 10° E daylight
31 Oct - 18:17:29 10° WNW 18:20:39 41° SW 18:23:48 10° SSE daylight
01 Nov - 09:22:22 10° S 09:24:39 17° SE 09:26:56 10° E daylight
01 Nov - 10:57:56 10° WSW 11:01:06 41° NW 11:04:16 10° NE daylight
01 Nov - 12:37:56 10° NNW 12:38:30 10° NNW 12:39:05 10° N daylight
01 Nov - 15:52:22 10° NNW 15:54:28 16° NNE 15:56:33 10° ENE daylight
01 Nov - 17:28:11 10° NW 17:31:31 83° SW 17:34:51 10° SE daylight
02 Nov - 09:08:32 10° SW 09:11:50 77° NW 09:15:10 10° NE daylight
02 Nov - 10:47:13 10° NW 10:49:00 14° NNW 10:50:47 10° N daylight
02 Nov - 14:03:46 10° N 14:04:58 12° NNE 14:06:10 10° NE daylight
02 Nov - 15:39:01 10° NW 15:42:17 52° NE 15:45:32 10° ESE daylight
02 Nov - 17:16:51 10° W 17:18:38 14° SW 17:20:24 10° SSW daylight
03 Nov - 08:19:23 10° SW 08:22:37 54° SE 08:25:52 10° ENE daylight
03 Nov - 09:57:03 10° WNW 09:59:30 19° NNW 10:01:59 10° NNE daylight
03 Nov - 14:49:56 10° NNW 14:52:56 30° NNE 14:55:55 10° E daylight
03 Nov - 16:26:43 10° WNW 16:29:32 25° SW 16:32:20 10° S daylight
04 Nov - 07:30:34 10° SSW 07:33:25 27° SE 07:36:17 10° ENE daylight
04 Nov - 09:07:07 10° W 09:10:03 28° NNW 09:12:59 10° NNE daylight
04 Nov - 14:00:55 10° NNW 14:03:28 20° NNE 14:06:01 10° ENE daylight
04 Nov - 15:37:06 10° WNW 15:40:20 49° SW 15:43:33 10° SSE daylight
05 Nov - 06:42:19 10° SSE 06:44:15 15° SE 06:46:11 10° E daylight
05 Nov - 08:17:24 10° WSW 08:20:37 48° NW 08:23:51 10° NE daylight
05 Nov - 09:56:56 10° NW 09:57:57 11° NNW 09:58:58 10° N daylight
05 Nov - 13:12:01 10° NNW 13:13:54 14° NNE 13:15:47 10° ENE daylight
05 Nov - 14:47:41 10° NW 14:51:01 83° NE 14:54:20 10° SE daylight
06 Nov - 07:27:55 10° SW 07:31:13 89° SE 07:34:33 10° NE daylight
06 Nov - 09:06:19 10° WNW 09:08:18 15° NNW 09:10:17 10° NNE daylight
06 Nov - 12:23:26 10° N 12:24:14 11° NNE 12:25:02 10° NNE daylight
06 Nov - 13:58:23 10° NW 14:01:36 44° NE 14:04:48 10° ESE daylight
06 Nov - 15:35:51 10° W 15:38:00 16° SW 15:40:09 10° S daylight
07 Nov - 06:38:41 10° SSW 06:41:51 44° SE 06:45:02 10° ENE visible
07 Nov - 08:16:03 10° W 08:18:40 21° NNW 08:21:17 10° NNE daylight
07 Nov - 13:09:11 10° NNW 13:12:04 27° NNE 13:14:57 10° E daylight
07 Nov - 14:45:46 10° WNW 14:48:44 30° SW 14:51:41 10° SSE daylight
08 Nov - 05:49:50 10° S 05:52:31 23° SE 05:55:12 10° ENE visible
08 Nov - 07:26:02 10° W 07:29:03 32° NNW 07:32:06 10° NNE daylight
08 Nov - 12:20:03 10° NNW 12:22:25 18° NNE 12:24:48 10° ENE daylight
08 Nov - 13:56:04 10° WNW 13:59:21 60° SW 14:02:37 10° SE daylight
